Time,TemperatureF,DewpointF,PressureIn,WindDirection,WindDirectionDegrees,WindSpeedMPH,WindSpeedGustMPH,Humidity,HourlyPrecipIn,Conditions,Clouds,dailyrainin,SoftwareType,DateUTC
2013-02-25 00:01:00,27.0,8.0,30.03,North,10,11.0,17.0,43,0.00,,,0.00,,2013-02-25 07:01:00,
2013-02-25 00:11:00,26.0,8.0,30.03,North,10,10.0,16.0,45,0.00,,,0.00,,2013-02-25 07:11:00,
2013-02-25 00:21:00,26.0,8.0,30.03,North,10,10.0,16.0,45,0.00,,,0.00,,2013-02-25 07:21:00,
2013-02-25 00:31:00,26.0,8.0,30.04,North,9,11.0,15.0,45,0.00,,,0.00,,2013-02-25 07:31:00,
2013-02-25 00:41:00,26.0,8.0,30.04,North,9,11.0,15.0,45,0.00,,,0.00,,2013-02-25 07:41:00,
2013-02-25 00:51:00,26.0,7.0,30.04,NNE,16,12.0,16.0,44,0.00,,,0.00,,2013-02-25 07:51:00,
2013-02-25 01:01:00,26.0,7.0,30.05,NNE,24,11.0,17.0,44,0.00,,,0.00,,2013-02-25 08:01:00,
2013-02-25 01:11:00,26.0,8.0,30.05,NNE,25,9.0,17.0,45,0.00,,,0.00,,2013-02-25 08:11:00,
2013-02-25 01:21:00,26.0,8.0,30.05,NNE,25,9.0,17.0,45,0.00,,,0.00,,2013-02-25 08:21:00,
2013-02-25 01:31:00,26.0,8.0,30.05,NE,36,9.0,17.0,45,0.00,,,0.00,,2013-02-25 08:31:00,
2013-02-25 01:41:00,26.0,8.0,30.05,NE,36,9.0,17.0,45,0.00,,,0.00,,2013-02-25 08:41:00,
2013-02-25 01:52:00,26.0,8.0,30.06,NNE,20,10.0,17.0,45,0.00,,,0.00,,2013-02-25 08:52:00,
2013-02-25 02:01:00,25.0,7.0,30.06,NNE,24,10.0,15.0,46,0.00,,,0.00,,2013-02-25 09:01:00,
2013-02-25 02:12:00,25.0,7.0,30.06,NNE,24,10.0,15.0,46,0.00,,,0.00,,2013-02-25 09:12:00,
2013-02-25 02:21:00,25.0,7.0,30.05,NNE,29,8.0,14.0,45,0.00,,,0.00,,2013-02-25 09:21:00,
2013-02-25 02:31:00,25.0,7.0,30.06,NE,41,8.0,12.0,46,0.00,,,0.00,,2013-02-25 09:31:00,
2013-02-25 02:41:00,25.0,7.0,30.06,NE,41,8.0,12.0,46,0.00,,,0.00,,2013-02-25 09:41:00,
2013-02-25 02:52:00,25.0,7.0,30.06,NE,40,7.0,13.0,46,0.00,,,0.00,,2013-02-25 09:52:00,
2013-02-25 03:01:00,25.0,8.0,30.06,NE,39,7.0,12.0,47,0.00,,,0.00,,2013-02-25 10:01:00,
2013-02-25 03:11:00,25.0,8.0,30.06,NNE,30,8.0,11.0,47,0.00,,,0.00,,2013-02-25 10:11:00,
2013-02-25 03:21:00,25.0,8.0,30.06,NNE,30,8.0,11.0,47,0.00,,,0.00,,2013-02-25 10:21:00,
2013-02-25 03:31:00,25.0,7.0,30.06,NNE,33,8.0,15.0,46,0.00,,,0.00,,2013-02-25 10:31:00,
2013-02-25 03:41:00,25.0,7.0,30.06,NNE,33,8.0,15.0,46,0.00,,,0.00,,2013-02-25 10:41:00,
2013-02-25 03:52:00,25.0,7.0,30.05,NNE,24,7.0,12.0,46,0.00,,,0.00,,2013-02-25 10:52:00,
2013-02-25 04:01:00,25.0,8.0,30.06,North,359,7.0,12.0,47,0.00,,,0.00,,2013-02-25 11:01:00,
2013-02-25 04:11:00,25.0,8.0,30.06,North,359,7.0,12.0,47,0.00,,,0.00,,2013-02-25 11:11:00,
2013-02-25 04:21:00,23.0,7.0,30.07,North,3,6.0,8.0,49,0.00,,,0.00,,2013-02-25 11:21:00,
2013-02-25 04:31:00,24.0,8.0,30.07,North,11,7.0,10.0,50,0.00,,,0.00,,2013-02-25 11:31:00,
2013-02-25 04:41:00,24.0,8.0,30.07,North,11,7.0,10.0,50,0.00,,,0.00,,2013-02-25 11:41:00,
2013-02-25 04:52:00,24.0,7.0,30.08,North,11,8.0,11.0,48,0.00,,,0.00,,2013-02-25 11:52:00,
2013-02-25 05:01:00,25.0,7.0,30.08,NNE,24,6.0,10.0,46,0.00,,,0.00,,2013-02-25 12:01:00,
2013-02-25 05:11:00,25.0,7.0,30.08,NNE,24,6.0,10.0,46,0.00,,,0.00,,2013-02-25 12:11:00,
2013-02-25 05:21:00,25.0,7.0,30.08,NNE,24,6.0,10.0,46,0.00,,,0.00,,2013-02-25 12:21:00,
2013-02-25 05:32:00,24.0,7.0,30.09,NE,52,7.0,10.0,47,0.00,,,0.00,,2013-02-25 12:32:00,
2013-02-25 05:41:00,24.0,7.0,30.09,NE,52,7.0,10.0,47,0.00,,,0.00,,2013-02-25 12:41:00,
2013-02-25 05:55:00,24.0,7.0,30.09,NE,45,5.0,11.0,47,0.00,,,0.00,,2013-02-25 12:55:00,
2013-02-25 06:01:00,21.0,6.0,30.09,NNE,14,1.0,5.0,52,0.00,,,0.00,,2013-02-25 13:01:00,
2013-02-25 06:11:00,21.0,6.0,30.09,NNE,14,1.0,5.0,52,0.00,,,0.00,,2013-02-25 13:11:00,
2013-02-25 06:21:00,19.0,6.0,30.09,SE,140,2.0,3.0,57,0.00,,,0.00,,2013-02-25 13:21:00,
2013-02-25 06:31:00,19.0,7.0,30.09,SSW,202,2.0,4.0,59,0.00,,,0.00,,2013-02-25 13:31:00,
2013-02-25 06:41:00,19.0,7.0,30.09,SSW,202,2.0,4.0,59,0.00,,,0.00,,2013-02-25 13:41:00,
2013-02-25 06:52:00,17.0,6.0,30.10,NW,309,1.0,3.0,62,0.00,,,0.00,,2013-02-25 13:52:00,
2013-02-25 07:02:00,15.0,6.0,30.10,North,0,0.0,3.0,66,0.00,,,0.00,,2013-02-25 14:02:00,
2013-02-25 07:21:00,15.0,7.0,30.11,North,0,0.0,1.0,69,0.00,,,0.00,,2013-02-25 14:21:00,
2013-02-25 07:31:00,13.0,6.0,30.11,North,0,0.0,2.0,74,0.00,,,0.00,,2013-02-25 14:31:00,
2013-02-25 07:41:00,13.0,6.0,30.11,North,0,0.0,2.0,74,0.00,,,0.00,,2013-02-25 14:41:00,
2013-02-25 07:50:00,17.0,10.0,30.12,North,0,0.0,1.0,72,0.00,,,0.00,,2013-02-25 14:50:00,
2013-02-25 07:52:00,14.0,7.0,30.11,North,0,0.0,3.0,72,0.00,,,0.00,,2013-02-25 14:52:00,
2013-02-25 08:02:00,16.0,8.0,30.12,North,0,0.0,2.0,71,0.00,,,0.00,,2013-02-25 15:02:00,
2013-02-25 08:11:00,16.0,8.0,30.12,North,0,0.0,2.0,71,0.00,,,0.00,,2013-02-25 15:11:00,
2013-02-25 08:21:00,17.0,10.0,30.12,North,0,0.0,1.0,72,0.00,,,0.00,,2013-02-25 15:21:00,
2013-02-25 08:32:00,17.0,10.0,30.12,North,0,0.0,1.0,72,0.00,,,0.00,,2013-02-25 15:32:00,
2013-02-25 08:41:00,17.0,10.0,30.12,North,0,0.0,1.0,72,0.00,,,0.00,,2013-02-25 15:41:00,
2013-02-25 09:01:00,28.0,10.0,30.11,NE,53,3.0,6.0,47,0.00,,,0.00,,2013-02-25 16:01:00,
2013-02-25 09:21:00,30.0,9.0,30.11,NE,39,6.0,12.0,41,0.00,,,0.00,,2013-02-25 16:21:00,
2013-02-25 09:31:00,31.0,8.0,30.11,NE,49,11.0,14.0,38,0.00,,,0.00,,2013-02-25 16:31:00,
2013-02-25 09:41:00,31.0,8.0,30.11,NE,49,11.0,14.0,38,0.00,,,0.00,,2013-02-25 16:41:00,
2013-02-25 09:51:00,31.0,8.0,30.11,NE,49,11.0,14.0,38,0.00,,,0.00,,2013-02-25 16:51:00,
2013-02-25 10:01:00,33.0,7.0,30.11,North,1,9.0,13.0,33,0.00,,,0.00,,2013-02-25 17:01:00,
2013-02-25 10:11:00,33.0,7.0,30.11,North,1,9.0,13.0,33,0.00,,,0.00,,2013-02-25 17:11:00,
2013-02-25 10:21:00,34.0,7.0,30.10,NNE,26,4.0,11.0,32,0.00,,,0.00,,2013-02-25 17:21:00,
2013-02-25 10:31:00,34.0,7.0,30.10,NNE,20,4.0,9.0,31,0.00,,,0.00,,2013-02-25 17:31:00,
2013-02-25 10:41:00,34.0,7.0,30.10,NNE,20,4.0,9.0,31,0.00,,,0.00,,2013-02-25 17:41:00,
2013-02-25 10:51:00,34.0,7.0,30.10,NNE,20,4.0,9.0,31,0.00,,,0.00,,2013-02-25 17:51:00,
2013-02-25 11:01:00,36.0,7.0,30.12,NE,51,3.0,7.0,29,0.00,,,0.00,,2013-02-25 18:01:00,
2013-02-25 11:11:00,36.0,7.0,30.12,NE,51,3.0,7.0,29,0.00,,,0.00,,2013-02-25 18:11:00,
2013-02-25 11:21:00,37.0,5.0,30.13,NE,37,2.0,10.0,26,0.00,,,0.00,,2013-02-25 18:21:00,
2013-02-25 11:32:00,37.0,8.0,30.13,SSE,167,1.0,10.0,30,0.00,,,0.00,,2013-02-25 18:32:00,
2013-02-25 11:41:00,37.0,8.0,30.13,SSE,167,1.0,10.0,30,0.00,,,0.00,,2013-02-25 18:41:00,
2013-02-25 11:51:00,37.0,8.0,30.13,SSE,167,1.0,10.0,30,0.00,,,0.00,,2013-02-25 18:51:00,
2013-02-25 12:01:00,39.0,9.0,30.11,SSE,160,2.0,10.0,29,0.00,,,0.00,,2013-02-25 19:01:00,
2013-02-25 12:11:00,39.0,9.0,30.11,SSE,160,2.0,10.0,29,0.00,,,0.00,,2013-02-25 19:11:00,
2013-02-25 12:21:00,40.0,9.0,30.11,SSE,154,5.0,9.0,27,0.00,,,0.00,,2013-02-25 19:21:00,
2013-02-25 12:31:00,40.0,9.0,30.11,SSE,154,5.0,9.0,27,0.00,,,0.00,,2013-02-25 19:31:00,
2013-02-25 12:41:00,40.0,9.0,30.11,SSE,154,5.0,9.0,27,0.00,,,0.00,,2013-02-25 19:41:00,
2013-02-25 12:52:00,41.0,10.0,30.09,SE,129,5.0,9.0,27,0.00,,,0.00,,2013-02-25 19:52:00,
2013-02-25 13:01:00,41.0,10.0,30.09,SE,129,5.0,9.0,27,0.00,,,0.00,,2013-02-25 20:01:00,
2013-02-25 13:11:00,41.0,10.0,30.09,SE,129,5.0,9.0,27,0.00,,,0.00,,2013-02-25 20:11:00,
2013-02-25 13:21:00,41.0,10.0,30.09,SE,129,5.0,9.0,27,0.00,,,0.00,,2013-02-25 20:21:00,
2013-02-25 13:32:00,43.0,10.0,30.09,ESE,114,2.0,9.0,26,0.00,,,0.00,,2013-02-25 20:32:00,
2013-02-25 13:42:00,43.0,10.0,30.09,ESE,114,2.0,9.0,26,0.00,,,0.00,,2013-02-25 20:42:00,
2013-02-25 13:52:00,43.0,10.0,30.08,ENE,78,5.0,10.0,25,0.00,,,0.00,,2013-02-25 20:52:00,
2013-02-25 14:01:00,45.0,9.0,30.05,NNE,13,1.0,7.0,23,0.00,,,0.00,,2013-02-25 21:01:00,
2013-02-25 14:11:00,45.0,9.0,30.05,NNE,13,1.0,7.0,23,0.00,,,0.00,,2013-02-25 21:11:00,
2013-02-25 14:21:00,46.0,8.0,30.05,SE,138,5.0,9.0,21,0.00,,,0.00,,2013-02-25 21:21:00,
2013-02-25 14:31:00,47.0,7.0,30.04,ESE,114,2.0,6.0,19,0.00,,,0.00,,2013-02-25 21:31:00,
2013-02-25 14:41:00,47.0,7.0,30.04,ESE,114,2.0,6.0,19,0.00,,,0.00,,2013-02-25 21:41:00,
2013-02-25 14:52:00,47.0,7.0,30.04,ESE,114,2.0,6.0,19,0.00,,,0.00,,2013-02-25 21:52:00,
2013-02-25 15:01:00,48.0,10.0,30.03,NNE,14,6.0,17.0,21,0.00,,,0.00,,2013-02-25 22:01:00,
2013-02-25 15:11:00,48.0,10.0,30.03,NNE,14,6.0,17.0,21,0.00,,,0.00,,2013-02-25 22:11:00,
2013-02-25 15:21:00,49.0,10.0,30.03,SSW,207,6.0,11.0,20,0.00,,,0.00,,2013-02-25 22:21:00,
2013-02-25 15:31:00,49.0,10.0,30.03,SSW,207,6.0,11.0,20,0.00,,,0.00,,2013-02-25 22:31:00,
2013-02-25 15:41:00,49.0,10.0,30.03,SSW,207,6.0,11.0,20,0.00,,,0.00,,2013-02-25 22:41:00,
2013-02-25 15:52:00,49.0,11.0,30.05,SW,219,4.0,10.0,21,0.00,,,0.00,,2013-02-25 22:52:00,
2013-02-25 16:01:00,49.0,13.0,30.04,SSW,203,6.0,11.0,23,0.00,,,0.00,,2013-02-25 23:01:00,
2013-02-25 16:11:00,49.0,13.0,30.04,SSW,203,6.0,11.0,23,0.00,,,0.00,,2013-02-25 23:11:00,
2013-02-25 16:21:00,48.0,13.0,30.03,SW,236,5.0,14.0,24,0.00,,,0.00,,2013-02-25 23:21:00,
2013-02-25 16:31:00,47.0,12.0,30.03,South,189,7.0,15.0,24,0.00,,,0.00,,2013-02-25 23:31:00,
2013-02-25 16:41:00,47.0,12.0,30.03,South,189,7.0,15.0,24,0.00,,,0.00,,2013-02-25 23:41:00,
2013-02-25 16:52:00,48.0,13.0,30.03,South,180,3.0,13.0,24,0.00,,,0.00,,2013-02-25 23:52:00,
2013-02-25 17:01:00,47.0,13.0,30.02,SSW,211,7.0,12.0,25,0.00,,,0.00,,2013-02-26 00:01:00,
2013-02-25 17:11:00,47.0,13.0,30.02,SSW,211,7.0,12.0,25,0.00,,,0.00,,2013-02-26 00:11:00,
2013-02-25 17:21:00,49.0,10.0,30.04,NW,307,4.0,11.0,20,0.00,,,0.00,,2013-02-26 00:21:00,
2013-02-25 17:32:00,49.0,10.0,30.04,NW,307,4.0,11.0,20,0.00,,,0.00,,2013-02-26 00:32:00,
2013-02-25 17:41:00,49.0,10.0,30.04,NW,307,4.0,11.0,20,0.00,,,0.00,,2013-02-26 00:41:00,
2013-02-25 17:52:00,47.0,8.0,30.03,WNW,290,7.0,13.0,20,0.00,,,0.00,,2013-02-26 00:52:00,
2013-02-25 18:01:00,45.0,10.0,30.03,WSW,238,8.0,19.0,24,0.00,,,0.00,,2013-02-26 01:01:00,
2013-02-25 18:11:00,45.0,10.0,30.03,WSW,238,8.0,19.0,24,0.00,,,0.00,,2013-02-26 01:11:00,
2013-02-25 18:21:00,43.0,12.0,30.03,SSW,207,1.0,12.0,28,0.00,,,0.00,,2013-02-26 01:21:00,
2013-02-25 18:31:00,43.0,12.0,30.03,SSW,207,1.0,12.0,28,0.00,,,0.00,,2013-02-26 01:31:00,
2013-02-25 18:41:00,43.0,12.0,30.03,SSW,207,1.0,12.0,28,0.00,,,0.00,,2013-02-26 01:41:00,
2013-02-25 18:51:00,39.0,10.0,30.04,SSW,204,5.0,13.0,30,0.00,,,0.00,,2013-02-26 01:51:00,
2013-02-25 19:01:00,37.0,10.0,30.04,SSW,211,3.0,8.0,32,0.00,,,0.00,,2013-02-26 02:01:00,
2013-02-25 19:11:00,37.0,10.0,30.04,SSW,211,3.0,8.0,32,0.00,,,0.00,,2013-02-26 02:11:00,
2013-02-25 19:21:00,37.0,10.0,30.04,SSW,211,3.0,8.0,32,0.00,,,0.00,,2013-02-26 02:21:00,
2013-02-25 19:31:00,38.0,9.0,30.03,WSW,246,3.0,20.0,30,0.00,,,0.00,,2013-02-26 02:31:00,
2013-02-25 19:41:00,38.0,9.0,30.03,WSW,246,3.0,20.0,30,0.00,,,0.00,,2013-02-26 02:41:00,
2013-02-25 19:52:00,36.0,10.0,30.03,South,173,2.0,6.0,33,0.00,,,0.00,,2013-02-26 02:52:00,
2013-02-25 20:01:00,35.0,10.0,30.01,South,171,3.0,15.0,35,0.00,,,0.00,,2013-02-26 03:01:00,
2013-02-25 20:11:00,35.0,10.0,30.01,South,171,3.0,15.0,35,0.00,,,0.00,,2013-02-26 03:11:00,
2013-02-25 20:21:00,37.0,8.0,30.01,SSW,209,2.0,12.0,30,0.00,,,0.00,,2013-02-26 03:21:00,
2013-02-25 20:31:00,38.0,8.0,30.01,SW,236,10.0,17.0,28,0.00,,,0.00,,2013-02-26 03:31:00,
2013-02-25 20:41:00,38.0,8.0,30.01,SW,236,10.0,17.0,28,0.00,,,0.00,,2013-02-26 03:41:00,
2013-02-25 20:52:00,38.0,9.0,30.01,SW,230,6.0,21.0,29,0.00,,,0.00,,2013-02-26 03:52:00,
2013-02-25 21:01:00,37.0,8.0,30.02,SW,222,6.0,13.0,30,0.00,,,0.00,,2013-02-26 04:01:00,
2013-02-25 21:11:00,37.0,8.0,30.02,SW,222,6.0,13.0,30,0.00,,,0.00,,2013-02-26 04:11:00,
2013-02-25 21:21:00,36.0,10.0,30.02,SSE,166,3.0,10.0,34,0.00,,,0.00,,2013-02-26 04:21:00,
2013-02-25 21:31:00,35.0,10.0,30.03,SSE,164,7.0,15.0,35,0.00,,,0.00,,2013-02-26 04:31:00,
2013-02-25 21:42:00,35.0,10.0,30.03,SSE,164,7.0,15.0,35,0.00,,,0.00,,2013-02-26 04:42:00,
2013-02-25 21:52:00,35.0,11.0,30.03,SE,137,11.0,16.0,36,0.00,,,0.00,,2013-02-26 04:52:00,
2013-02-25 22:01:00,36.0,11.0,30.02,SE,133,15.0,22.0,35,0.00,,,0.00,,2013-02-26 05:01:00,
2013-02-25 22:11:00,36.0,10.0,30.02,ENE,76,17.0,29.0,34,0.00,,,0.00,,2013-02-26 05:11:00,
2013-02-25 22:21:00,36.0,10.0,30.02,ENE,76,17.0,29.0,34,0.00,,,0.00,,2013-02-26 05:21:00,
2013-02-25 22:31:00,35.0,10.0,30.01,South,190,6.0,28.0,35,0.00,,,0.00,,2013-02-26 05:31:00,
2013-02-25 22:42:00,35.0,10.0,30.01,South,190,6.0,28.0,35,0.00,,,0.00,,2013-02-26 05:42:00,
2013-02-25 22:52:00,34.0,11.0,30.00,SSW,212,3.0,17.0,38,0.00,,,0.00,,2013-02-26 05:52:00,
2013-02-25 23:01:00,34.0,10.0,30.00,SSE,149,5.0,17.0,36,0.00,,,0.00,,2013-02-26 06:01:00,
2013-02-25 23:11:00,34.0,10.0,30.00,SSE,149,5.0,17.0,36,0.00,,,0.00,,2013-02-26 06:11:00,
2013-02-25 23:21:00,33.0,11.0,30.00,South,179,3.0,13.0,39,0.00,,,0.00,,2013-02-26 06:21:00,
2013-02-25 23:31:00,32.0,12.0,30.00,South,190,3.0,9.0,42,0.00,,,0.00,,2013-02-26 06:31:00,
2013-02-25 23:41:00,32.0,12.0,30.00,South,190,3.0,9.0,42,0.00,,,0.00,,2013-02-26 06:41:00,
2013-02-25 23:51:00,31.0,12.0,29.99,SSE,155,13.0,17.0,44,0.00,,,0.00,,2013-02-26 06:51:00,